Regional Weather Roundup
Issued by NWS Kansas City/Pleasant Hill, MO

Home | Current Version | Previous Version | Graphics & Text | Print | Product List | Glossary Off
Versions: 1 2 3 4 5 6 7 8 9 10 11 12 13 14 15 16 17 18 19 20 21 22 23 24 25 26 27 28

000
ASUS43 KEAX 230810
RWREAX

WEATHER ROUNDUP FOR EASTERN KANSAS AND NORTHWEST MISSOURI
NATIONAL WEATHER SERVICE KANSAS CITY/PLEASANT HILL MO
200 AM CST THU NOV 23 2017

KSZ040-057-103>105-MOZ028-029-037-043-230900-
...KANSAS CITY METROPOLITAN AREA...

CITY           SKY/WX    TMP DP  RH WIND       PRES   REMARKS
K.C. INTL      CLEAR     36  20  52 S12       30.07F WCI  28
K.C. DOWNTOWN  CLEAR     37  20  50 S7        30.10F WCI  32
LEES SUMMIT    CLEAR     34  21  59 SW12      30.10F WCI  25
OLATHE - IXD   CLEAR     34  21  59 S8        30.10F WCI  27
OLATHE - OJC   CLEAR     32  21  64 S8        30.10F WCI  25
LAWRENCE       CLEAR     34  22  61 SE6       30.10F WCI  29

$$

MOZ001>008-011>017-020>025-030>033-038>040-044>046-053-054-230900-
...NORTHERN AND CENTRAL MISSOURI...

CITY           SKY/WX    TMP DP  RH WIND       PRES   REMARKS
ST. JOSEPH     CLEAR     34  21  59 S6        30.06F WCI  29
MOSBY          SUNNY     32  21  64 SE3       30.10F
WARRENSBURG    CLEAR     32  23  69 S7        30.13F WCI  26
WHITEMAN AFB   CLEAR     29  22  73 S7        30.09F WCI  22
CLINTON        CLOUDY    32  21  64 MISG      30.16S
SEDALIA        CLEAR     30  24  78 S7        30.15F WCI  23
WARSAW         NOT AVBL
CHILLICOTHE      N/A     32  21  64 S6        30.09F WCI  26
KIRKSVILLE     CLOUDY    35  20  54 SW9       30.09F WCI  28

$$

MOZ041-047>049-056>058-063>065-088>090-097-230900-
...EASTERN AND SOUTHERN MISSOURI...

CITY           SKY/WX    TMP DP  RH WIND       PRES   REMARKS
ST. LOUIS INTL MOCLDY    33  21  61 S5        30.20F WCI  29
SPIRIT OF STL  PTCLDY    28  22  78 CALM      30.19F
COLUMBIA       CLEAR     29  18  63 S9        30.15F WCI  20
JEFFERSON CITY CLEAR     33  18  53 CALM      30.19R
ROLLA          CLOUDY    29  16  58 S6        30.17S WCI  23
OSAGE BEACH    CLEAR     29  20  69 CALM      30.18S
SPRINGFIELD    PTCLDY    33  23  66 S8        30.16F WCI  26
BRANSON        CLOUDY    37  14  38 CALM      30.19R
JOPLIN         PTCLDY    33  25  72 S6        30.17F WCI  28
WEST PLAINS    CLOUDY    28  20  71 CALM      30.19F

$$

IAZ060-094-KSZ022-034>040-054-083-096-NEZ052-066-093-230900-
...KANSAS...SOUTHEAST NEBRASKA AND IOWA...

CITY           SKY/WX    TMP DP  RH WIND       PRES   REMARKS
TOPEKA         CLEAR     33  22  63 SE5       30.09S WCI  29
MANHATTAN      CLEAR     38  22  52 SW8       30.07S WCI  32
EMPORIA        CLOUDY    32  21  64 S6        30.09F WCI  26
CHANUTE        CLEAR     33  22  63 S7        30.14F WCI  27
WICHITA        CLEAR     33  23  66 S5        30.12S WCI  29
OMAHA          CLEAR     31  21  66 SE9       29.99F WCI  23
LINCOLN        CLEAR     39  23  52 SW3       30.02F
FALLS CITY     CLEAR     32  21  64 S3        30.03F
LAMONI         CLEAR     31  19  61 S13       30.01F WCI  21
DES MOINES     CLEAR     33  18  53 S8        29.99F WCI  26

$$





USA.gov is the U.S. government's official web portal to all federal, state and local government web resources and services.